Voltar ao catálogo

STARLINK-32163

AtivoComunicaçõesVLEO
NORAD 60262·PAYLOAD·🇺🇸 United States

Lançado Jul 27, 2024 de Cape Canaveral Space Force Station

Loading…

Próximas Passagens (próximas 24 horas)

TLE

AtualizadoSource: CelesTrak SupGP

Época: Sep 14, 2026, 21:13 UTC

1 60262C 24131H   26257.88451389  .00044260  00000+0  14234-2 0  2573
2 60262  53.1581 252.0464 0001249  93.8719  50.5510 15.31677500    19

Acompanhe STARLINK-32163 em tempo real com AllMySat

Download on the App Store